Date String (YYYY-MM-DD hh:mm:ss) UTC,Instrument flags,absolute air pressure of the measurement (hPa),sample flow rate (lpm),inlet stack bypass flow (lpm),air temperature of the measurement (°C),ambient temperature measured by the external sensor (°C),aerosol sample conditioner tube jacket temperature (°C),OPC LED temperature (°C),internal box temperature (°C),relative humidity of the measurement (%),span deviation,mass concentration of particles derived from Lorenz-Mie calculation of OPC scattering (μg/m³),mass concentration of particles derived from Lorenz-Mie calculation of OPC scattering (μg/m³),mass concentration of particles derived from Lorenz-Mie calculation of OPC scattering (μg/m³)
DateTimeUTC,F1_M11,P_M11,Q1_M11,Q2_M11,T1_M11,T2_M11,T3_M11,T4_M11,T5_M11,U1_M11,ZSPAN_M11,X0_M11,X2_M11,X1_M11
2024-05-29 11:00:00,SystemResetWarning,0831.8,5.00,000.00,029.0,028.1,000.0,037.6,030.8,023.1,0000.0,0018.28,0005.97,0004.44
2024-05-29 11:01:00,SystemResetWarning,0831.8,5.00,000.00,029.0,028.1,000.0,037.6,030.8,023.3,0000.0,0018.61,0005.96,0004.44
2024-05-29 11:02:00,SystemResetWarning,0832.0,4.99,000.00,029.0,028.1,000.0,037.6,030.8,023.5,0000.0,0018.38,0005.93,0004.45
2024-05-29 11:03:00,SystemResetWarning,0831.7,4.99,000.00,029.0,028.1,000.0,037.5,030.8,023.5,0000.0,0018.22,0005.93,0004.46
2024-05-29 11:04:00,SystemResetWarning,0831.8,5.00,000.00,029.0,028.1,000.0,037.5,030.8,023.5,0000.0,0018.13,0005.95,0004.46
2024-05-29 11:05:00,SystemResetWarning,0832.0,5.00,000.00,029.0,028.1,000.0,037.5,030.8,023.4,0000.0,0017.92,0005.94,0004.47
2024-05-29 11:06:00,SystemResetWarning,0832.2,5.00,000.00,029.0,028.1,000.0,037.5,030.7,023.2,0000.0,0017.86,0005.88,0004.46
2024-05-29 11:07:00,SystemResetWarning,0832.1,5.00,000.00,029.0,028.1,000.0,037.5,030.8,023.3,0000.0,0017.56,0005.85,0004.46
2024-05-29 11:08:00,SystemResetWarning,0832.0,5.01,000.00,029.0,028.1,000.0,037.5,030.7,023.3,0000.0,0016.93,0005.87,0004.46
2024-05-29 11:09:00,SystemResetWarning,0831.7,5.01,000.00,029.0,028.1,000.0,037.5,030.7,023.2,0000.0,0016.45,0005.83,0004.45
2024-05-29 11:10:00,SystemResetWarning,0831.7,5.00,000.00,029.0,028.1,000.0,037.5,030.7,023.2,0000.0,0016.46,0005.77,0004.43
2024-05-29 11:11:00,SystemResetWarning,0831.7,4.99,000.00,029.0,028.1,000.0,037.5,030.7,023.2,0000.0,0017.05,0005.75,0004.43
2024-05-29 11:12:00,SystemResetWarning,0831.7,4.99,000.00,029.0,028.1,000.0,037.4,030.7,023.2,0000.0,0017.04,0005.77,0004.43
2024-05-29 11:13:00,SystemResetWarning,0831.7,5.00,000.00,029.0,028.1,000.0,037.4,030.7,023.2,0000.0,0016.92,0005.76,0004.42
2024-05-29 11:14:00,SystemResetWarning,0831.6,5.01,000.00,029.0,028.1,000.0,037.4,030.7,023.2,0000.0,0017.28,0005.75,0004.41
2024-05-29 11:15:00,SystemResetWarning,0831.6,5.01,000.00,029.0,028.1,000.0,037.4,030.7,023.3,0000.0,0018.01,0005.73,0004.41
2024-05-29 11:16:00,SystemResetWarning,0831.7,4.99,000.00,028.9,028.1,000.0,037.4,030.7,023.3,0000.0,0017.66,0005.80,0004.42
2024-05-29 11:17:00,SystemResetWarning,0831.6,4.99,000.00,028.9,028.1,000.0,037.4,030.7,023.4,0000.0,0017.49,0005.84,0004.41
2024-05-29 11:18:00,SystemResetWarning,0831.6,5.00,000.00,028.9,028.1,000.0,037.4,030.7,023.5,0000.0,0018.21,0005.83,0004.41
2024-05-29 11:19:00,SystemResetWarning,0831.6,5.00,000.00,028.9,028.0,000.0,037.4,030.7,023.4,0000.0,0019.11,0005.89,0004.43
2024-05-29 11:20:00,SystemResetWarning,0831.5,5.01,000.00,028.9,028.0,000.0,037.4,030.7,023.5,0000.0,0018.74,0005.95,0004.44
2024-05-29 11:21:00,SystemResetWarning,0831.5,5.00,000.00,028.9,028.0,000.0,037.4,030.7,023.5,0000.0,0018.18,0005.96,0004.45
2024-05-29 11:22:00,SystemResetWarning,0831.5,5.00,000.00,028.9,028.0,000.0,037.4,030.7,023.5,0000.0,0017.28,0005.98,0004.46
2024-05-29 11:23:00,SystemResetWarning,0831.5,4.99,000.00,028.9,028.0,000.0,037.4,030.7,023.5,0000.0,0016.39,0005.97,0004.46
2024-05-29 11:24:00,SystemResetWarning,0831.5,4.99,000.00,028.9,028.0,000.0,037.4,030.7,023.5,0000.0,0016.74,0006.04,0004.48
2024-05-29 11:25:00,SystemResetWarning,0831.5,5.00,000.00,028.9,028.0,000.0,037.4,030.7,023.2,0000.0,0017.89,0006.10,0004.48
2024-05-29 11:26:00,SystemResetWarning,0831.5,4.99,000.00,028.9,028.0,000.0,037.3,030.7,023.0,0000.0,0018.20,0006.14,0004.45
2024-05-29 11:27:00,SystemResetWarning,0831.5,5.02,000.00,028.9,028.0,000.0,037.3,030.6,023.0,0000.0,0018.85,0006.08,0004.42
2024-05-29 11:28:00,SystemResetWarning,0831.5,5.00,000.00,028.9,028.0,000.0,037.3,030.6,023.1,0000.0,0018.96,0006.02,0004.39
2024-05-29 11:29:00,SystemResetWarning,0831.5,4.98,000.00,028.9,028.0,000.0,037.3,030.6,023.1,0000.0,0018.44,0006.03,0004.36
2024-05-29 11:30:00,SystemResetWarning,0831.5,5.00,000.00,028.9,028.0,000.0,037.3,030.6,022.9,0000.0,0017.30,0006.00,0004.34
2024-05-29 11:31:00,SystemResetWarning,0831.5,5.01,000.00,028.8,028.0,000.0,037.3,030.6,022.4,0000.0,0018.17,0005.96,0004.31
2024-05-29 11:32:00,SystemResetWarning,0831.5,5.00,000.00,028.8,028.0,000.0,037.3,030.6,022.2,0000.0,0018.95,0005.92,0004.27
2024-05-29 11:33:00,SystemResetWarning,0831.4,5.01,000.00,028.8,027.9,000.0,037.3,030.6,022.0,0000.0,0019.40,0005.84,0004.21
2024-05-29 11:34:00,SystemResetWarning,0831.4,5.00,000.00,028.8,027.9,000.0,037.3,030.6,022.0,0000.0,0019.65,0005.72,0004.17
2024-05-29 11:35:00,SystemResetWarning,0831.4,4.99,000.00,028.8,027.9,000.0,037.3,030.6,021.7,0000.0,0019.56,0005.62,0004.11
2024-05-29 11:36:00,SystemResetWarning,0831.5,5.00,000.00,028.8,027.9,000.0,037.3,030.6,021.6,0000.0,0017.90,0005.49,0004.06
2024-05-29 11:37:00,SystemResetWarning,0831.5,5.00,000.00,028.8,027.9,000.0,037.3,030.5,021.7,0000.0,0016.81,0005.39,0004.03
2024-05-29 11:38:00,SystemResetWarning,0831.5,5.00,000.00,028.8,027.9,000.0,037.3,030.5,021.7,0000.0,0016.49,0005.39,0004.02
2024-05-29 11:39:00,SystemResetWarning,0831.5,5.01,000.00,028.8,027.9,000.0,037.3,030.5,021.7,0000.0,0016.59,0005.31,0004.00
2024-05-29 11:40:00,SystemResetWarning,0831.4,5.00,000.00,028.8,027.9,000.0,037.2,030.5,021.6,0000.0,0016.17,0005.25,0003.97
2024-05-29 11:41:00,SystemResetWarning,0831.4,5.01,000.00,028.8,027.9,000.0,037.2,030.5,021.5,0000.0,0016.08,0005.19,0003.94
2024-05-29 11:42:00,SystemResetWarning,0831.5,5.01,000.00,028.7,027.9,000.0,037.2,030.5,021.3,0000.0,0014.96,0005.12,0003.90
2024-05-29 11:43:00,SystemResetWarning,0831.4,5.00,000.00,028.7,027.9,000.0,037.2,030.5,021.1,0000.0,0014.11,0005.07,0003.88
2024-05-29 11:44:00,SystemResetWarning,0831.4,5.00,000.00,028.7,027.8,000.0,037.2,030.5,020.7,0000.0,0013.70,0005.04,0003.87
2024-05-29 11:45:00,SystemResetWarning,0831.4,5.00,000.00,028.7,027.8,000.0,037.2,030.5,020.6,0000.0,0013.27,0005.07,0003.84
2024-05-29 11:46:00,SystemResetWarning,0831.5,5.00,000.00,028.7,027.8,000.0,037.2,030.5,020.4,0000.0,0013.48,0005.05,0003.82
2024-05-29 11:47:00,SystemResetWarning,0831.5,4.99,000.00,028.7,027.8,000.0,037.2,030.5,020.4,0000.0,0013.16,0005.00,0003.79
2024-05-29 11:48:00,SystemResetWarning,0831.4,4.99,000.00,028.7,027.8,000.0,037.2,030.4,020.6,0000.0,0013.35,0005.01,0003.77
2024-05-29 11:49:00,SystemResetWarning,0831.4,4.99,000.00,028.7,027.8,000.0,037.2,030.4,020.5,0000.0,0012.77,0004.96,0003.74
2024-05-29 11:50:00,SystemResetWarning,0831.4,4.99,000.00,028.7,027.8,000.0,037.1,030.4,020.4,0000.0,0012.14,0004.93,0003.73
2024-05-29 11:51:00,SystemResetWarning,0831.5,5.00,000.00,028.7,027.8,000.0,037.1,030.4,020.3,0000.0,0012.76,0004.85,0003.70
2024-05-29 11:52:00,SystemResetWarning,0831.4,5.00,000.00,028.7,027.8,000.0,037.1,030.4,020.2,0000.0,0012.99,0004.77,0003.67
2024-05-29 11:53:00,SystemResetWarning,0831.4,5.00,000.00,028.7,027.8,000.0,037.1,030.4,019.9,0000.0,0013.30,0004.71,0003.64
2024-05-29 11:54:00,SystemResetWarning,0831.4,5.00,000.00,028.7,027.8,000.0,037.1,030.4,019.9,0000.0,0013.18,0004.67,0003.62
2024-05-29 11:55:00,SystemResetWarning,0831.4,5.00,000.00,028.6,027.8,000.0,037.1,030.4,019.9,0000.0,0012.71,0004.64,0003.60
2024-05-29 11:56:00,SystemResetWarning,0831.4,5.00,000.00,028.6,027.7,000.0,037.1,030.4,019.9,0000.0,0012.51,0004.61,0003.60
2024-05-29 11:57:00,SystemResetWarning,0831.4,5.00,000.00,028.6,027.7,000.0,037.1,030.4,019.9,0000.0,0012.79,0004.59,0003.59
2024-05-29 11:58:00,SystemResetWarning,0831.4,5.01,000.00,028.6,027.7,000.0,037.1,030.4,020.0,0000.0,0012.78,0004.65,0003.61
2024-05-29 11:59:00,SystemResetWarning,0831.4,5.00,000.00,028.6,027.7,000.0,037.1,030.4,020.0,0000.0,0012.49,0004.58,0003.61
